Hourly Data Report for March 27, 2019

MIRAMICHI RCS
NEW BRUNSWICK
Current Station Operator: ECCC - MSC

47°00'34.000" N
65°27'54.000" W
33.00 m
8100989
71744
ACQ

Download Data

Hourly Data (March 2019)
Hourly Data Report for March 27, 2019
TIME
LST
Temp Definition
°C
Dew Point Definition
°C
Rel Hum Definition
%
Precip. Amount Definition
mm

Wind Dir Definition
10's deg

Wind Spd Definition
km/h
Visibility Definition
km
Stn Press Definition
kPa
Hmdx Definition


Wind Chill Definition


Weather Definition


00:00 -10.0 -17.0 56 0.0 27 8   102.10   -14 LegendNANA
01:00 -10.1 -16.5 60 0.0 27 8   102.16   -15 LegendNANA
02:00 -11.7 -16.9 66 0.0 27 5   102.25   -15 LegendNANA
03:00 -12.8 -17.2 69 0.0 27 7   102.30   -17 LegendNANA
04:00 -11.2 -17.4 60 0.0 31 7   102.37   -15 LegendNANA
05:00 -11.0 -17.8 57 0.0 31 8   102.45   -16 LegendNANA
06:00 -13.5 -18.4 67 0.0 27 7   102.53   -18 LegendNANA
07:00 -12.9 -17.9 67 0.0 26 7   102.64   -17 LegendNANA
08:00 -10.7 -17.2 59 0.0 23 3   102.71   -13 LegendNANA
09:00 -5.3 -17.3 38 0.0 13 2   102.75   -6 LegendNANA
10:00 -4.5 -17.7 35 0.0 17 4   102.78   -6 LegendNANA
11:00 -3.3 -17.6 32 0.0 25 9   102.78   -7 LegendNANA
12:00 -2.2 -17.8 29 0.0 28 7   102.75   -5 LegendNANA
13:00 -1.4 -15.9 32 0.0 23 12   102.70   -5 LegendNANA
14:00 0.6 -16.3 27 0.0 23 8   102.62     LegendNANA
15:00 1.7 -14.7 28 0.0 22 8   102.55     LegendNANA
16:00 2.2 -15.6 25 0.0 21 13   102.48     LegendNANA
17:00 2.2 -14.5 28 0.0 21 16   102.44     LegendNANA
18:00 1.7 -13.2 32 0.0 19 15   102.43     LegendNANA
19:00 0.0 -13.5 35 0.0 18 8   102.42   -3 LegendNANA
20:00 -1.5 -13.3 40 0.0 18 11   102.47   -5 LegendNANA
21:00 -2.0 -13.2 42 0.0 19 17   102.47   -7 LegendNANA
22:00 -2.4 -13.7 42 0.0 20 13   102.48   -7 LegendNANA
23:00 -2.9 -13.3 44 0.0 20 8   102.49   -6 LegendNANA

Notes on Data Quality.

Legend

  • E = Estimated
  • M = Missing
  • NA = Not Available*
  • [empty] = Indicates an unobserved value
Date modified: